Fort George G Meade, MD

3:23 AM EST on February 25, 2017 (GMT -0500)
Tipton

Weather History for KFME - April, 2014

Change the Weather History Date:

Sunday, April 27, 2014

  Actual Average (KBWI) Record (KBWI)
Temperature  
Mean Temperature 52 °F -  
Max Temperature 64 °F 67 °F 92 °F (1994)
Min Temperature 39 °F 44 °F 35 °F (2001)
Degree Days  
Heating Degree Days 14    
Growing Degree Days 2 (Base 50)    
Moisture  
Dew Point 33 °F    
Average Humidity 47    
Maximum Humidity 81    
Minimum Humidity 30    
Precipitation  
Precipitation 0.00 in - - ()
Sea Level Pressure  
Sea Level Pressure 30.05 in    
Wind  
Wind Speed 6 mph (NNW)    
Max Wind Speed 12 mph    
Max Gust Speed 18 mph    
Visibility 10 miles    
Events      
Averages and records for this station are not official NWS values.
T = Trace of Precipitation, MM = Missing Value Source: NWS Daily Summary

Daily Weather History Graph

Daily Weather History Graph

Search for Another Location

Airport or City:

Trip Planner

Search our weather history database for the weather conditions in past years. The results will help you decide how hot, cold, wet, or windy it might be!

Date:

Astronomy

Apr. 27, 2014 Rise Set
Actual Time 6:13 AM EDT 7:56 PM EDT
Civil Twilight 5:45 AM EDT 8:24 PM EDT
Nautical Twilight 5:10 AM EDT 8:59 PM EDT
Astronomical Twilight 4:34 AM EDT 9:36 PM EDT
Moon 5:12 AM EDT (4/27) 6:28 PM EDT (4/27)
Length of Visible Light 14h 39m
Length of Day
13h 42m
Waning Crescent, 3% of the Moon is Illuminated
Apr 27
Waning Crescent
Apr 29
New
May 6
First Quarter
May 14
Full
May 21
Last Quarter

Hourly Weather History & Observations

Time (EDT) Temp. Windchill Dew Point Humidity Pressure Visibility Wind Dir Wind Speed Gust Speed Precip Events Conditions
12:03 AM 59.0 °F - 32.0 °F 36% 29.92 in 10.0 mi NW 6.9 mph 18.4 mph N/A   Clear
12:21 AM 59.0 °F - 32.0 °F 36% 29.93 in 10.0 mi NNW 4.6 mph - N/A   Clear
12:42 AM 55.4 °F - 30.2 °F 38% 29.94 in 10.0 mi North 9.2 mph - N/A   Clear
1:03 AM 55.4 °F - 28.4 °F 36% 29.95 in 10.0 mi North 8.1 mph - N/A   Clear
1:21 AM 55.4 °F - 28.4 °F 36% 29.95 in 10.0 mi North 5.8 mph - N/A   Scattered Clouds
1:42 AM 53.6 °F - 30.2 °F 41% 29.96 in 10.0 mi NNW 5.8 mph - N/A   Scattered Clouds
2:03 AM 51.8 °F - 30.2 °F 44% 29.97 in 10.0 mi NNE 4.6 mph - N/A   Clear
2:21 AM 50.0 °F - 30.2 °F 47% 29.98 in 10.0 mi North 5.8 mph - N/A   Clear
2:42 AM 50.0 °F - 32.0 °F 50% 29.98 in 10.0 mi North 6.9 mph - N/A   Clear
3:03 AM 50.0 °F - 30.2 °F 47% 29.98 in 10.0 mi North 4.6 mph - N/A   Clear
3:21 AM 50.0 °F - 30.2 °F 47% 29.98 in 10.0 mi NNW 3.5 mph - N/A   Clear
3:42 AM 46.4 °F 45.2 °F 32.0 °F 57% 29.99 in 10.0 mi NW 3.5 mph - N/A   Clear
4:03 AM 46.4 °F 44.3 °F 32.0 °F 57% 30.00 in 10.0 mi NW 4.6 mph - N/A   Clear
4:21 AM 44.6 °F 42.2 °F 32.0 °F 61% 30.01 in 10.0 mi NW 4.6 mph - N/A   Clear
4:42 AM 42.8 °F 41.1 °F 32.0 °F 66% 30.02 in 10.0 mi NW 3.5 mph - N/A   Clear
5:03 AM 42.8 °F 41.1 °F 32.0 °F 66% 30.02 in 10.0 mi NW 3.5 mph - N/A   Clear
5:24 AM 42.8 °F 41.1 °F 32.0 °F 66% 30.03 in 10.0 mi NW 3.5 mph - N/A   Clear
5:42 AM 41.0 °F 39.0 °F 32.0 °F 70% 30.03 in 10.0 mi NW 3.5 mph - N/A   Clear
6:03 AM 41.0 °F - 32.0 °F 70% 30.04 in 10.0 mi Calm Calm - N/A   Clear
6:24 AM 39.2 °F 37.0 °F 32.0 °F 75% 30.05 in 10.0 mi NW 3.5 mph - N/A   Clear
6:42 AM 41.0 °F - 32.0 °F 70% 30.06 in 10.0 mi Calm Calm - N/A   Clear
7:03 AM 42.8 °F 41.1 °F 33.8 °F 70% 30.07 in 10.0 mi NW 3.5 mph - N/A   Clear
7:24 AM 46.4 °F 43.5 °F 32.0 °F 57% 30.08 in 10.0 mi NW 5.8 mph - N/A   Clear
7:42 AM 48.2 °F - 32.0 °F 54% 30.08 in 10.0 mi NW 6.9 mph - N/A   Clear
8:03 AM 50.0 °F - 32.0 °F 50% 30.09 in 10.0 mi NW 5.8 mph - N/A   Clear
8:24 AM 51.8 °F - 32.0 °F 47% 30.09 in 10.0 mi NNW 5.8 mph - N/A   Clear
9:03 AM 51.8 °F - 32.0 °F 47% 30.09 in 10.0 mi NW 5.8 mph - N/A   Clear
9:42 AM 53.6 °F - 32.0 °F 44% 30.09 in 10.0 mi NNW 4.6 mph - N/A   Clear
10:03 AM 53.6 °F - 32.0 °F 44% 30.09 in 10.0 mi North 9.2 mph - N/A   Clear
10:24 AM 55.4 °F - 32.0 °F 41% 30.09 in 10.0 mi NNW 8.1 mph - N/A   Clear
10:42 AM 55.4 °F - 33.8 °F 44% 30.09 in 10.0 mi NW 9.2 mph - N/A   Clear
11:03 AM 55.4 °F - 33.8 °F 44% 30.09 in 10.0 mi North 8.1 mph - N/A   Clear
11:24 AM 59.0 °F - 33.8 °F 39% 30.09 in 10.0 mi West 10.4 mph - N/A   Clear
11:42 AM 59.0 °F - 33.8 °F 39% 30.09 in 10.0 mi WNW 11.5 mph - N/A   Clear
12:24 PM 60.8 °F - 33.8 °F 36% 30.07 in 10.0 mi NNW 5.8 mph - N/A   Clear
12:42 PM 60.8 °F - 35.6 °F 39% 30.06 in 10.0 mi WNW 9.2 mph - N/A   Clear
1:03 PM 60.8 °F - 33.8 °F 36% 30.06 in 10.0 mi North 10.4 mph - N/A   Clear
1:24 PM 62.6 °F - 33.8 °F 34% 30.06 in 10.0 mi NW 9.2 mph 16.1 mph N/A   Clear
1:45 PM 62.6 °F - 33.8 °F 34% 30.05 in 10.0 mi NNW 8.1 mph - N/A   Clear
2:03 PM 62.6 °F - 32.0 °F 32% 30.05 in 10.0 mi WNW 6.9 mph 16.1 mph N/A   Clear
2:24 PM 62.6 °F - 33.8 °F 34% 30.04 in 10.0 mi NNW 5.8 mph - N/A   Clear
2:45 PM 62.6 °F - 33.8 °F 34% 30.03 in 10.0 mi North 10.4 mph - N/A   Clear
3:24 PM 64.4 °F - 32.0 °F 30% 30.03 in 10.0 mi NW 8.1 mph - N/A   Clear
3:45 PM 64.4 °F - 33.8 °F 32% 30.02 in 10.0 mi NW 5.8 mph - N/A   Clear
4:03 PM 64.4 °F - 32.0 °F 30% 30.03 in 10.0 mi North 9.2 mph - N/A   Clear
4:45 PM 64.4 °F - 32.0 °F 30% 30.03 in 10.0 mi Calm Calm - N/A   Clear
5:03 PM 64.4 °F - 32.0 °F 30% 30.03 in 10.0 mi WNW 6.9 mph - N/A   Clear
5:24 PM 62.6 °F - 32.0 °F 32% 30.03 in 10.0 mi North 3.5 mph - N/A   Clear
5:45 PM 62.6 °F - 32.0 °F 32% 30.03 in 10.0 mi WNW 8.1 mph - N/A   Clear
6:03 PM 64.4 °F - 32.0 °F 30% 30.04 in 10.0 mi NNW 8.1 mph - N/A   Clear
6:24 PM 62.6 °F - 32.0 °F 32% 30.04 in 10.0 mi WNW 6.9 mph - N/A   Clear
6:45 PM 62.6 °F - 33.8 °F 34% 30.05 in 10.0 mi North 8.1 mph - N/A   Clear
7:03 PM 60.8 °F - 32.0 °F 34% 30.06 in 10.0 mi NNE 5.8 mph - N/A   Clear
7:24 PM 60.8 °F - 32.0 °F 34% 30.07 in 10.0 mi NE 3.5 mph - N/A   Clear
7:45 PM 59.0 °F - 32.0 °F 36% 30.07 in 10.0 mi NNE 3.5 mph - N/A   Clear
8:03 PM 53.6 °F - 35.6 °F 51% 30.08 in 10.0 mi NE 3.5 mph - N/A   Clear
8:24 PM 55.4 °F - 33.8 °F 44% 30.08 in 10.0 mi ESE 4.6 mph - N/A   Clear
8:45 PM 51.8 °F - 35.6 °F 54% 30.09 in 10.0 mi Calm Calm - N/A   Clear
9:03 PM 50.0 °F - 35.6 °F 58% 30.09 in 10.0 mi East 4.6 mph - N/A   Clear
9:24 PM 51.8 °F - 35.6 °F 54% 30.10 in 10.0 mi ESE 5.8 mph - N/A   Clear
9:45 PM 50.0 °F - 35.6 °F 58% 30.11 in 10.0 mi East 3.5 mph - N/A   Clear
10:24 PM 46.4 °F - 37.4 °F 71% 30.12 in 10.0 mi Calm Calm - N/A   Clear
10:45 PM 46.4 °F - 37.4 °F 71% 30.13 in 10.0 mi Calm Calm - N/A   Clear
11:06 PM 44.6 °F - 37.4 °F 76% 30.13 in 10.0 mi Calm Calm - N/A   Clear
11:24 PM 44.6 °F - 39.2 °F 81% 30.13 in 10.0 mi Calm Calm - N/A   Clear
11:45 PM 42.8 °F - 37.4 °F 81% 30.13 in 10.0 mi Calm Calm - N/A   Clear